Location: ????????
(55.6189°N, 38.3031°E)
Time: 08:05:50
(UTC+00:00)

ASTEX 1 - Pass Details

Date: 15 November 2019
Orbit: 721 x 743 km, 92.7° (Epoch: 11 December)

Event Time Altitude Azimuth Distance (km) Brightness Sun altitude
Rises 03:08:42 0° 207° (SSW) 3,157 6.5 -15.4°
Reaches altitude 10° 03:11:18 10° 219° (SW) 2,243 5.6 -15.1°
Maximum altitude 03:15:33 28° 278° (W) 1,380 4.2 -14.5°
Drops below altitude 10° 03:19:50 10° 337° (NNW) 2,267 5.6 -13.9°
Sets 03:22:28 0° 349° (N) 3,197 6.5 -13.5°
